Accueil
METAR-TAF:

METAR-TAF

Aéroports :

Tacoma Narrows Airport

Tacoma, Washington, États-Unis

latitude: 47-16-03N, longitude: 122-34-34W, altitude: 96 m

Observation

Le bulletin a été fait il y a 24 minutes, à 06:53 UTC
Vent 4 kt de sud-ouest
Température 8°C
Humidité 71%
Pression 1026 hPa
Visibilité: 16.1 km
Ciel clair

METAR: KTIW 220653Z AUTO 22004KT 10SM CLR 08/03 A3031 RMK AO2 SLP266 T00830033

Heure: 00:17 (07:17 UTC)


TAF: absent

Observations et prévisions météorologiques de plus de 4000 aéroports (messages METAR et TAF).

Les stations disponibles sont représentées par des disques jaunes et rouges sur la carte.

Passer la souris dessus pour voir le nom de la station.

Cliquer dessus pour voir les observations et prévisions météorologiques.

Pour changer de carte: cliquez sur les boutons verts avec une croix noire pour zoomer, sur le bouton vert avec un tiret pour effectuer un zoom arrière, ou sur les flèches vertes pour les cartes adjacentes.


METAR-TAF: